Location: Wanzleben
(52.0609°N, 11.4408°E)
Time: 18:59:29
(UTC+00:00)

COSMOS 2406 - Pass Details

Date: 17 January 2021
Orbit: 841 x 865 km, 71.0° (Epoch: 06 March)

Event Time Altitude Azimuth Distance (km) Brightness Sun altitude
Rises 19:42:19 0° 328° (NNW) 3,460 6.9 -37.1°
Reaches altitude 10° 19:44:48 10° 326° (NW) 2,519 6.1 -37.4°
Enters shadow 19:47:19 27° 321° (NW) 1,619 5.0 -37.8°
